Voltar ao catálogo

ARIANE 2 DEB

LostGTO
NORAD 40785·DEBRIS·🇫🇷 France

Lançado Jan 27, 1989 de Guiana Space Centre

Loading…

TLE

ObsoletoSource: Space-Track

Época: Sep 11, 2025, 12:35 UTC

1 40785U 89006CE  25254.52494609  .00000194  00000-0  12977-2 0  9996
2 40785   7.9677  30.3911 7068185  11.5607 269.5081  2.42427986165427

Acompanhe ARIANE 2 DEB em tempo real com AllMySat

Download on the App Store